Year,Month,Day,Hour,Minute,Value (Times are PST for temperature in C)
2018,01,21,00,00,8.50
2018,01,21,00,01,8.50
2018,01,21,00,02,8.50
2018,01,21,00,03,8.60
2018,01,21,00,04,8.60
2018,01,21,00,05,8.60
2018,01,21,00,06,8.60
2018,01,21,00,07,8.50
2018,01,21,00,08,8.50
2018,01,21,00,09,8.50
2018,01,21,00,10,8.50
2018,01,21,00,11,8.50
2018,01,21,00,12,8.50
2018,01,21,00,13,8.50
2018,01,21,00,14,8.50
2018,01,21,00,15,8.50
2018,01,21,00,16,8.50
2018,01,21,00,17,8.50
2018,01,21,00,18,8.60
2018,01,21,00,19,8.50
2018,01,21,00,20,8.50
2018,01,21,00,21,8.50
2018,01,21,00,22,8.60
2018,01,21,00,23,8.50
2018,01,21,00,24,8.60
2018,01,21,00,25,8.60
2018,01,21,00,26,8.50
2018,01,21,00,27,8.50
2018,01,21,00,28,8.50
2018,01,21,00,29,8.50
2018,01,21,00,30,8.50
2018,01,21,00,31,8.60
2018,01,21,00,32,8.60
2018,01,21,00,33,8.60
2018,01,21,00,34,8.60
2018,01,21,00,35,8.50
2018,01,21,00,36,8.60
2018,01,21,00,37,8.60
2018,01,21,00,38,8.60
2018,01,21,00,39,8.50
2018,01,21,00,40,8.50
2018,01,21,00,41,8.50
2018,01,21,00,42,8.50
2018,01,21,00,43,8.50
2018,01,21,00,44,8.50
2018,01,21,00,45,8.50
2018,01,21,00,46,8.50
2018,01,21,00,47,8.50
2018,01,21,00,48,8.50
2018,01,21,00,49,8.50
2018,01,21,00,50,8.50
2018,01,21,00,51,8.50
2018,01,21,00,52,8.50
2018,01,21,00,53,8.50
2018,01,21,00,54,8.50
2018,01,21,00,55,8.50
2018,01,21,00,56,8.50
2018,01,21,00,57,8.50
2018,01,21,00,58,8.50
2018,01,21,00,59,8.50
2018,01,21,01,00,8.50
2018,01,21,01,01,8.50
2018,01,21,01,02,8.50
2018,01,21,01,03,8.50
2018,01,21,01,04,8.50
2018,01,21,01,05,8.50
2018,01,21,01,06,8.50
2018,01,21,01,07,8.50
2018,01,21,01,08,8.50
2018,01,21,01,09,8.50
2018,01,21,01,10,8.50
2018,01,21,01,11,8.50
2018,01,21,01,12,8.40
2018,01,21,01,13,8.40
2018,01,21,01,14,8.40
2018,01,21,01,15,8.40
2018,01,21,01,16,8.40
2018,01,21,01,17,8.40
2018,01,21,01,18,8.40
2018,01,21,01,19,8.40
2018,01,21,01,20,8.40
2018,01,21,01,21,8.40
2018,01,21,01,22,8.40
2018,01,21,01,23,8.40
2018,01,21,01,24,8.40
2018,01,21,01,25,8.40
2018,01,21,01,26,8.40
2018,01,21,01,27,8.40
2018,01,21,01,28,8.40
2018,01,21,01,29,8.40
2018,01,21,01,30,8.40
2018,01,21,01,31,8.40
2018,01,21,01,32,8.40
2018,01,21,01,33,8.40
2018,01,21,01,34,8.40
2018,01,21,01,35,8.40
2018,01,21,01,36,8.40
2018,01,21,01,37,8.40
2018,01,21,01,38,8.40
2018,01,21,01,39,8.40
2018,01,21,01,40,8.40
2018,01,21,01,41,8.40
2018,01,21,01,42,8.40
2018,01,21,01,43,8.40
2018,01,21,01,44,8.40
2018,01,21,01,45,8.40
2018,01,21,01,46,8.40
2018,01,21,01,47,8.40
2018,01,21,01,48,8.40
2018,01,21,01,49,8.40
2018,01,21,01,50,8.30
2018,01,21,01,51,8.30
2018,01,21,01,52,8.30
2018,01,21,01,53,8.30
2018,01,21,01,54,8.30
2018,01,21,01,55,8.30
2018,01,21,01,56,8.30
2018,01,21,01,57,8.30
2018,01,21,01,58,8.30
2018,01,21,01,59,8.30
2018,01,21,02,00,8.30
2018,01,21,02,01,8.30
2018,01,21,02,02,8.40
2018,01,21,02,03,8.40
2018,01,21,02,04,8.40
2018,01,21,02,05,8.40
2018,01,21,02,06,8.30
2018,01,21,02,07,8.30
2018,01,21,02,08,8.30
2018,01,21,02,09,8.30
2018,01,21,02,10,8.30
2018,01,21,02,11,8.40
2018,01,21,02,12,8.30
2018,01,21,02,13,8.30
2018,01,21,02,14,8.30
2018,01,21,02,15,8.30
2018,01,21,02,16,8.30
2018,01,21,02,17,8.30
2018,01,21,02,18,8.30
2018,01,21,02,19,8.40
2018,01,21,02,20,8.40
2018,01,21,02,21,8.40
2018,01,21,02,22,8.40
2018,01,21,02,23,8.40
2018,01,21,02,24,8.40
2018,01,21,02,25,8.40
2018,01,21,02,26,8.40
2018,01,21,02,27,8.40
2018,01,21,02,28,8.40
2018,01,21,02,29,8.40
2018,01,21,02,30,8.40
2018,01,21,02,31,8.40
2018,01,21,02,32,8.40
2018,01,21,02,33,8.30
2018,01,21,02,34,8.30
2018,01,21,02,35,8.30
2018,01,21,02,36,8.30
2018,01,21,02,37,8.30
2018,01,21,02,38,8.30
2018,01,21,02,39,8.30
2018,01,21,02,40,8.30
2018,01,21,02,41,8.30
2018,01,21,02,42,8.30
2018,01,21,02,43,8.30
2018,01,21,02,44,8.30
2018,01,21,02,45,8.30
2018,01,21,02,46,8.30
2018,01,21,02,47,8.30
2018,01,21,02,48,8.30
2018,01,21,02,49,8.30
2018,01,21,02,50,8.30
2018,01,21,02,51,8.30
2018,01,21,02,52,8.30
2018,01,21,02,53,8.30
2018,01,21,02,54,8.30
2018,01,21,02,55,8.30
2018,01,21,02,56,8.30
2018,01,21,02,57,8.30
2018,01,21,02,58,8.30
2018,01,21,02,59,8.30
2018,01,21,03,00,8.30
2018,01,21,03,01,8.30
2018,01,21,03,02,8.30
2018,01,21,03,03,8.30
2018,01,21,03,04,8.30
2018,01,21,03,05,8.30
2018,01,21,03,06,8.30
2018,01,21,03,07,8.30
2018,01,21,03,08,8.30
2018,01,21,03,09,8.30
2018,01,21,03,10,8.30
2018,01,21,03,11,8.30
2018,01,21,03,12,8.30
2018,01,21,03,13,8.30
2018,01,21,03,14,8.30
2018,01,21,03,15,8.30
2018,01,21,03,16,8.30
2018,01,21,03,17,8.30
2018,01,21,03,18,8.30
2018,01,21,03,19,8.30
2018,01,21,03,20,8.30
2018,01,21,03,21,8.30
2018,01,21,03,22,8.30
2018,01,21,03,23,8.30
2018,01,21,03,24,8.30
2018,01,21,03,25,8.30
2018,01,21,03,26,8.30
2018,01,21,03,27,8.30
2018,01,21,03,28,8.30
2018,01,21,03,29,8.30
2018,01,21,03,30,8.30
2018,01,21,03,31,8.30
2018,01,21,03,32,8.30
2018,01,21,03,33,8.20
2018,01,21,03,34,8.30
2018,01,21,03,35,8.30
2018,01,21,03,36,8.20
2018,01,21,03,37,8.20
2018,01,21,03,38,8.20
2018,01,21,03,39,8.20
2018,01,21,03,40,8.30
2018,01,21,03,41,8.30
2018,01,21,03,42,8.30
2018,01,21,03,43,8.30
2018,01,21,03,44,8.30
2018,01,21,03,45,8.30
2018,01,21,03,46,8.30
2018,01,21,03,47,8.30
2018,01,21,03,48,8.30
2018,01,21,03,49,8.30
2018,01,21,03,50,8.30
2018,01,21,03,51,8.30
2018,01,21,03,52,8.30
2018,01,21,03,53,8.30
2018,01,21,03,54,8.30
2018,01,21,03,55,8.20
2018,01,21,03,56,8.20
2018,01,21,03,57,8.20
2018,01,21,03,58,8.20
2018,01,21,03,59,8.20
2018,01,21,04,00,8.20
2018,01,21,04,01,8.20
2018,01,21,04,02,8.20
2018,01,21,04,03,8.30
2018,01,21,04,04,8.30
2018,01,21,04,05,8.20
2018,01,21,04,06,8.30
2018,01,21,04,07,8.20
2018,01,21,04,08,8.20
2018,01,21,04,09,8.20
2018,01,21,04,10,8.20
2018,01,21,04,11,8.20
2018,01,21,04,12,8.20
2018,01,21,04,13,8.20
2018,01,21,04,14,8.20
2018,01,21,04,15,8.20
2018,01,21,04,16,8.20
2018,01,21,04,17,8.20
2018,01,21,04,18,8.30
2018,01,21,04,19,8.30
2018,01,21,04,20,8.30
2018,01,21,04,21,8.30
2018,01,21,04,22,8.30
2018,01,21,04,23,8.30
2018,01,21,04,24,8.30
2018,01,21,04,25,8.30
2018,01,21,04,26,8.30
2018,01,21,04,27,8.30
2018,01,21,04,28,8.30
2018,01,21,04,29,8.30
2018,01,21,04,30,8.30
2018,01,21,04,31,8.30
2018,01,21,04,32,8.30
2018,01,21,04,33,8.30
2018,01,21,04,34,8.30
2018,01,21,04,35,8.30
2018,01,21,04,36,8.30
2018,01,21,04,37,8.30
2018,01,21,04,38,8.30
2018,01,21,04,39,8.30
2018,01,21,04,40,8.30
2018,01,21,04,41,8.30
2018,01,21,04,42,8.30
2018,01,21,04,43,8.30
2018,01,21,04,44,8.30
2018,01,21,04,45,8.30
2018,01,21,04,46,8.30
2018,01,21,04,47,8.30
2018,01,21,04,48,8.30
2018,01,21,04,49,8.30
2018,01,21,04,50,8.30
2018,01,21,04,51,8.30
2018,01,21,04,52,8.30
2018,01,21,04,53,8.30
2018,01,21,04,54,8.30
2018,01,21,04,55,8.30
2018,01,21,04,56,8.30
2018,01,21,04,57,8.30
2018,01,21,04,58,8.30
2018,01,21,04,59,8.30
2018,01,21,05,00,8.30
2018,01,21,05,01,8.30
2018,01,21,05,02,8.30
2018,01,21,05,03,8.30
2018,01,21,05,04,8.30
2018,01,21,05,05,8.30
2018,01,21,05,06,8.30
2018,01,21,05,07,8.30
2018,01,21,05,08,8.30
2018,01,21,05,09,8.30
2018,01,21,05,10,8.30
2018,01,21,05,11,8.30
2018,01,21,05,12,8.30
2018,01,21,05,13,8.30
2018,01,21,05,14,8.30
2018,01,21,05,15,8.30
2018,01,21,05,16,8.30
2018,01,21,05,17,8.30
2018,01,21,05,18,8.30
2018,01,21,05,19,8.30
2018,01,21,05,20,8.30
2018,01,21,05,21,8.30
2018,01,21,05,22,8.30
2018,01,21,05,23,8.30
2018,01,21,05,24,8.30
2018,01,21,05,25,8.30
2018,01,21,05,26,8.30
2018,01,21,05,27,8.30
2018,01,21,05,28,8.30
2018,01,21,05,29,8.30
2018,01,21,05,30,8.30
2018,01,21,05,31,8.30
2018,01,21,05,32,8.30
2018,01,21,05,33,8.30
2018,01,21,05,34,8.30
2018,01,21,05,35,8.30
2018,01,21,05,36,8.30
2018,01,21,05,37,8.30
2018,01,21,05,38,8.30
2018,01,21,05,39,8.30
2018,01,21,05,40,8.30
2018,01,21,05,41,8.30
2018,01,21,05,42,8.30
2018,01,21,05,43,8.30
2018,01,21,05,44,8.30
2018,01,21,05,45,8.30
2018,01,21,05,46,8.30
2018,01,21,05,47,8.30
2018,01,21,05,48,8.30
2018,01,21,05,49,8.30
2018,01,21,05,50,8.30
2018,01,21,05,51,8.30
2018,01,21,05,52,8.30
2018,01,21,05,53,8.30
2018,01,21,05,54,8.30
2018,01,21,05,55,8.40
2018,01,21,05,56,8.40
2018,01,21,05,57,8.40
2018,01,21,05,58,8.40
2018,01,21,05,59,8.40
2018,01,21,06,00,8.40
2018,01,21,06,01,8.40
2018,01,21,06,02,8.40
2018,01,21,06,03,8.40
2018,01,21,06,04,8.40
2018,01,21,06,05,8.40
2018,01,21,06,06,8.40
2018,01,21,06,07,8.40
2018,01,21,06,08,8.40
2018,01,21,06,09,8.40
2018,01,21,06,10,8.40
2018,01,21,06,11,8.40
2018,01,21,06,12,8.40
2018,01,21,06,13,8.40
2018,01,21,06,14,8.40
2018,01,21,06,15,8.50
2018,01,21,06,16,8.50
2018,01,21,06,17,8.50
2018,01,21,06,18,8.50
2018,01,21,06,19,8.50
2018,01,21,06,20,8.50
2018,01,21,06,21,8.40
2018,01,21,06,22,8.50
2018,01,21,06,23,8.50
2018,01,21,06,24,8.50
2018,01,21,06,25,8.50
2018,01,21,06,26,8.50
2018,01,21,06,27,8.60
2018,01,21,08,49,8.30
2018,01,21,08,50,8.30
2018,01,21,08,51,8.30
2018,01,21,08,52,8.30
2018,01,21,08,53,8.30
2018,01,21,08,54,8.30
2018,01,21,08,55,8.30
2018,01,21,08,56,8.30
2018,01,21,08,57,8.30
2018,01,21,08,58,8.30
2018,01,21,08,59,8.30
2018,01,21,09,00,8.30
2018,01,21,09,01,8.30
2018,01,21,09,02,8.30
2018,01,21,09,03,8.30
2018,01,21,09,04,8.30
2018,01,21,09,05,8.30
2018,01,21,09,06,8.30
2018,01,21,09,07,8.30
2018,01,21,09,08,8.30
2018,01,21,09,09,8.30
2018,01,21,09,10,8.30
2018,01,21,09,11,8.30
2018,01,21,09,12,8.30
2018,01,21,09,13,8.30
2018,01,21,09,14,8.30
2018,01,21,09,15,8.30
2018,01,21,09,16,8.30
2018,01,21,09,17,8.30
2018,01,21,09,18,8.30
2018,01,21,09,19,8.30
2018,01,21,09,20,8.30
2018,01,21,09,21,8.30
2018,01,21,09,22,8.30
2018,01,21,09,23,8.20
2018,01,21,09,24,8.30
2018,01,21,09,25,8.30
2018,01,21,09,26,8.30
2018,01,21,09,27,8.30
2018,01,21,09,28,8.30
2018,01,21,09,29,8.30
2018,01,21,09,30,8.30
2018,01,21,09,31,8.30
2018,01,21,09,32,8.30
2018,01,21,09,33,8.30
2018,01,21,09,34,8.30
2018,01,21,09,35,8.30
2018,01,21,09,36,8.30
2018,01,21,09,37,8.30
2018,01,21,09,38,8.20
2018,01,21,09,39,8.20
2018,01,21,09,40,8.20
2018,01,21,09,41,8.20
2018,01,21,09,42,8.20
2018,01,21,09,43,8.20
2018,01,21,09,44,8.20
2018,01,21,09,45,8.20
2018,01,21,09,46,8.20
2018,01,21,09,47,8.10
2018,01,21,09,48,8.10
2018,01,21,09,49,8.10
2018,01,21,09,50,8.10
2018,01,21,09,51,8.10
2018,01,21,09,52,8.10
2018,01,21,09,53,8.10
2018,01,21,09,54,8.10
2018,01,21,09,55,8.10
2018,01,21,09,56,8.00
2018,01,21,09,57,8.00
2018,01,21,09,58,7.90
2018,01,21,09,59,7.90
2018,01,21,10,00,7.90
2018,01,21,10,01,8.00
2018,01,21,10,02,8.00
2018,01,21,10,03,8.00
2018,01,21,10,04,8.00
2018,01,21,10,05,7.90
2018,01,21,10,06,7.90
2018,01,21,10,07,7.90
2018,01,21,10,08,7.90
2018,01,21,10,09,7.90
2018,01,21,10,10,7.90
2018,01,21,10,11,7.90
2018,01,21,10,12,8.00
2018,01,21,10,13,8.00
2018,01,21,10,14,8.10
2018,01,21,10,15,8.10
2018,01,21,10,16,8.10
2018,01,21,10,17,8.10
2018,01,21,10,18,8.10
2018,01,21,10,19,8.10
2018,01,21,10,20,8.10
2018,01,21,10,21,8.10
2018,01,21,10,22,8.10
2018,01,21,10,23,8.10
2018,01,21,10,24,8.10
2018,01,21,10,25,8.20
2018,01,21,10,26,8.20
2018,01,21,10,27,8.20
2018,01,21,10,28,8.20
2018,01,21,10,29,8.20
2018,01,21,10,30,8.20
2018,01,21,10,31,8.20
2018,01,21,10,32,8.20
2018,01,21,10,33,8.20
2018,01,21,10,34,8.30
2018,01,21,10,35,8.30
2018,01,21,10,36,8.30
2018,01,21,10,37,8.30
2018,01,21,10,38,8.30
2018,01,21,10,39,8.30
2018,01,21,10,40,8.20
2018,01,21,10,41,8.20
2018,01,21,10,42,8.20
2018,01,21,10,43,8.20
2018,01,21,10,44,8.20
2018,01,21,10,45,8.10
2018,01,21,10,46,8.10
2018,01,21,10,47,8.10
2018,01,21,10,48,8.10
2018,01,21,10,49,8.10
2018,01,21,10,50,8.10
2018,01,21,10,51,8.10
2018,01,21,10,52,8.10
2018,01,21,10,53,8.10
2018,01,21,10,54,8.10
2018,01,21,10,55,8.10
2018,01,21,10,56,8.10
2018,01,21,10,57,8.10
2018,01,21,10,58,8.10
2018,01,21,10,59,8.10
2018,01,21,11,00,8.10
2018,01,21,11,01,8.10
2018,01,21,11,02,8.10
2018,01,21,11,03,8.10
2018,01,21,11,04,8.10
2018,01,21,11,05,8.10
2018,01,21,11,06,8.10
2018,01,21,11,07,8.10
2018,01,21,11,08,8.20
2018,01,21,11,09,8.20
2018,01,21,11,10,8.20
2018,01,21,11,11,8.20
2018,01,21,11,12,8.20
2018,01,21,11,13,8.20
2018,01,21,11,14,8.20
2018,01,21,11,15,8.30
2018,01,21,11,16,8.30
2018,01,21,11,17,8.30
2018,01,21,11,18,8.30
2018,01,21,11,19,8.30
2018,01,21,11,20,8.30
2018,01,21,11,21,8.30
2018,01,21,11,22,8.30
2018,01,21,11,23,8.30
2018,01,21,11,24,8.30
2018,01,21,11,25,8.30
2018,01,21,11,26,8.30
2018,01,21,11,27,8.30
2018,01,21,11,28,8.30
2018,01,21,11,29,8.30
2018,01,21,11,30,8.30
2018,01,21,11,31,8.30
2018,01,21,11,32,8.30
2018,01,21,11,33,8.30
2018,01,21,11,34,8.30
2018,01,21,11,35,8.30
2018,01,21,11,36,8.30
2018,01,21,11,37,8.30
2018,01,21,11,38,8.30
2018,01,21,11,39,8.30
2018,01,21,11,40,8.30
2018,01,21,11,41,8.30
2018,01,21,11,42,8.30
2018,01,21,11,43,8.30
2018,01,21,11,44,8.30
2018,01,21,11,45,8.30
2018,01,21,11,46,8.40
2018,01,21,11,47,8.40
2018,01,21,11,48,8.40
2018,01,21,11,49,8.40
2018,01,21,11,50,8.40
2018,01,21,11,51,8.40
2018,01,21,11,52,8.40
2018,01,21,11,53,8.40
2018,01,21,11,54,8.40
2018,01,21,11,55,8.40
2018,01,21,11,56,8.40
2018,01,21,11,57,8.40
2018,01,21,11,58,8.40
2018,01,21,11,59,8.40
2018,01,21,12,00,8.40
2018,01,21,12,01,8.40
2018,01,21,12,02,8.50
2018,01,21,12,03,8.50
2018,01,21,12,04,8.50
2018,01,21,12,05,8.50
2018,01,21,12,06,8.50
2018,01,21,12,07,8.50
2018,01,21,12,08,8.50
2018,01,21,12,09,8.60
2018,01,21,12,10,8.60
2018,01,21,12,11,8.60
2018,01,21,12,12,8.70
2018,01,21,12,13,8.70
2018,01,21,12,14,8.70
2018,01,21,12,15,8.70
2018,01,21,12,16,8.70
2018,01,21,12,17,8.80
2018,01,21,12,18,8.80
2018,01,21,12,19,8.80
2018,01,21,12,20,8.80
2018,01,21,12,21,8.80
2018,01,21,12,22,8.90
2018,01,21,12,23,8.90
2018,01,21,12,24,8.90
2018,01,21,12,25,8.90
2018,01,21,12,26,8.90
2018,01,21,12,27,8.90
2018,01,21,12,28,8.90
2018,01,21,12,29,9.00
2018,01,21,12,30,9.00
2018,01,21,12,31,9.00
2018,01,21,12,32,9.00
2018,01,21,12,33,9.00
2018,01,21,12,34,9.00
2018,01,21,12,35,9.00
2018,01,21,12,36,8.90
2018,01,21,12,37,8.90
2018,01,21,12,38,8.90
2018,01,21,12,39,8.90
2018,01,21,12,40,8.90
2018,01,21,12,41,8.90
2018,01,21,12,42,8.90
2018,01,21,12,43,8.90
2018,01,21,12,44,8.90
2018,01,21,12,45,8.90
2018,01,21,12,46,8.90
2018,01,21,12,47,8.90
2018,01,21,12,48,8.90
2018,01,21,12,49,8.90
2018,01,21,12,50,8.90
2018,01,21,12,51,8.90
2018,01,21,12,52,8.90
2018,01,21,12,53,8.90
2018,01,21,12,54,8.90
2018,01,21,12,55,8.90
2018,01,21,12,56,8.90
2018,01,21,12,57,8.90
2018,01,21,12,58,8.90
2018,01,21,12,59,8.90
2018,01,21,13,00,8.90
2018,01,21,13,01,8.90
2018,01,21,13,02,8.80
2018,01,21,13,03,8.80
2018,01,21,13,04,8.80
2018,01,21,13,05,8.80
2018,01,21,13,06,8.80
2018,01,21,13,07,8.80
2018,01,21,13,08,8.80
2018,01,21,13,09,8.80
2018,01,21,13,10,8.80
2018,01,21,13,11,8.80
2018,01,21,13,12,8.80
2018,01,21,13,13,8.80
2018,01,21,13,14,8.70
2018,01,21,13,15,8.70
2018,01,21,13,16,8.70
2018,01,21,13,17,8.70
2018,01,21,13,18,8.80
2018,01,21,13,19,8.70
2018,01,21,13,20,8.70
2018,01,21,13,21,8.70
2018,01,21,13,22,8.70
2018,01,21,13,23,8.70
2018,01,21,13,24,8.70
2018,01,21,13,25,8.70
2018,01,21,13,26,8.70
2018,01,21,13,27,8.70
2018,01,21,13,28,8.70
2018,01,21,13,29,8.60
2018,01,21,13,30,8.60
2018,01,21,13,31,8.60
2018,01,21,13,32,8.60
2018,01,21,13,33,8.50
2018,01,21,13,34,8.50
2018,01,21,13,35,8.50
2018,01,21,13,36,8.40
2018,01,21,13,37,8.40
2018,01,21,13,38,8.40
2018,01,21,13,39,8.40
2018,01,21,13,40,8.40
2018,01,21,13,41,8.50
2018,01,21,13,42,8.50
2018,01,21,13,43,8.50
2018,01,21,13,44,8.60
2018,01,21,13,45,8.70
2018,01,21,13,46,8.70
2018,01,21,13,47,8.70
2018,01,21,13,48,8.80
2018,01,21,13,49,8.80
2018,01,21,13,50,8.80
2018,01,21,13,51,8.90
2018,01,21,13,52,8.90
2018,01,21,13,53,8.90
2018,01,21,13,54,8.90
2018,01,21,13,55,8.90
2018,01,21,13,56,8.90
2018,01,21,13,57,8.90
2018,01,21,13,58,8.90
2018,01,21,13,59,8.80
2018,01,21,14,00,8.80
2018,01,21,14,01,8.70
2018,01,21,14,02,8.70
2018,01,21,14,03,8.60
2018,01,21,14,04,8.60
2018,01,21,14,05,8.50
2018,01,21,14,06,8.50
2018,01,21,14,07,8.40
2018,01,21,14,08,8.40
2018,01,21,14,09,8.40
2018,01,21,14,10,8.30
2018,01,21,14,11,8.30
2018,01,21,14,12,8.30
2018,01,21,14,13,8.30
2018,01,21,14,14,8.30
2018,01,21,14,15,8.20
2018,01,21,14,16,8.20
2018,01,21,14,17,8.20
2018,01,21,14,18,8.20
2018,01,21,14,19,8.20
2018,01,21,14,20,8.20
2018,01,21,14,21,8.20
2018,01,21,14,22,8.20
2018,01,21,14,23,8.20
2018,01,21,14,24,8.20
2018,01,21,14,25,8.20
2018,01,21,14,26,8.20
2018,01,21,14,27,8.20
2018,01,21,14,28,8.20
2018,01,21,14,29,8.20
2018,01,21,14,30,8.20
2018,01,21,14,31,8.20
2018,01,21,14,32,8.20
2018,01,21,14,33,8.20
2018,01,21,14,34,8.20
2018,01,21,14,35,8.20
2018,01,21,14,36,8.20
2018,01,21,14,37,8.10
2018,01,21,14,38,8.10
2018,01,21,14,39,8.10
2018,01,21,14,40,8.10
2018,01,21,14,41,8.10
2018,01,21,14,42,8.10
2018,01,21,14,43,8.10
2018,01,21,14,44,8.10
2018,01,21,14,45,8.00
2018,01,21,14,46,8.00
2018,01,21,14,47,8.00
2018,01,21,14,48,8.00
2018,01,21,14,49,8.00
2018,01,21,14,50,8.00
2018,01,21,14,51,8.00
2018,01,21,14,52,7.90
2018,01,21,14,53,7.90
2018,01,21,14,54,7.90
2018,01,21,14,55,7.90
2018,01,21,14,56,7.90
2018,01,21,14,57,7.90
2018,01,21,14,58,7.90
2018,01,21,14,59,7.90
2018,01,21,15,00,7.90
2018,01,21,15,01,7.90
2018,01,21,15,02,7.90
2018,01,21,15,03,7.90
2018,01,21,15,04,8.00
2018,01,21,15,05,8.00
2018,01,21,15,06,8.00
2018,01,21,15,07,8.00
2018,01,21,15,08,8.00
2018,01,21,15,09,8.00
2018,01,21,15,10,8.10
2018,01,21,15,11,8.10
2018,01,21,15,12,8.10
2018,01,21,15,13,8.10
2018,01,21,15,14,8.10
2018,01,21,15,15,8.10
2018,01,21,15,16,8.10
2018,01,21,15,17,8.10
2018,01,21,15,18,8.00
2018,01,21,15,19,8.00
2018,01,21,15,20,8.00
2018,01,21,15,21,7.90
2018,01,21,15,22,7.90
2018,01,21,15,23,7.80
2018,01,21,15,24,7.60
2018,01,21,15,25,7.50
2018,01,21,15,26,7.20
2018,01,21,15,27,7.00
2018,01,21,15,28,6.80
2018,01,21,15,29,6.70
2018,01,21,15,30,6.60
2018,01,21,15,31,6.50
2018,01,21,15,32,6.50
2018,01,21,15,33,6.40
2018,01,21,15,34,6.40
2018,01,21,15,35,6.30
2018,01,21,15,36,6.30
2018,01,21,15,37,6.30
2018,01,21,15,38,6.30
2018,01,21,15,39,6.30
2018,01,21,15,40,6.30
2018,01,21,15,41,6.30
2018,01,21,15,42,6.20
2018,01,21,15,43,6.20
2018,01,21,15,44,6.20
2018,01,21,15,45,6.20
2018,01,21,15,46,6.20
2018,01,21,15,47,6.20
2018,01,21,15,48,6.20
2018,01,21,15,49,6.20
2018,01,21,15,50,6.20
2018,01,21,15,51,6.20
2018,01,21,15,52,6.20
2018,01,21,15,53,6.20
2018,01,21,15,54,6.20
2018,01,21,15,55,6.20
2018,01,21,15,56,6.20
2018,01,21,15,57,6.20
2018,01,21,15,58,6.20
2018,01,21,15,59,6.20
2018,01,21,16,00,6.20
2018,01,21,16,01,6.20
2018,01,21,16,02,6.20
2018,01,21,16,03,6.20
2018,01,21,16,04,6.20
2018,01,21,16,05,6.20
2018,01,21,16,06,6.20
2018,01,21,16,07,6.20
2018,01,21,16,08,6.20
2018,01,21,16,09,6.20
2018,01,21,16,10,6.20
2018,01,21,16,11,6.20
2018,01,21,16,12,6.20
2018,01,21,16,13,6.20
2018,01,21,16,14,6.20
2018,01,21,16,15,6.20
2018,01,21,16,16,6.20
2018,01,21,16,17,6.20
2018,01,21,16,18,6.20
2018,01,21,16,19,6.20
2018,01,21,16,20,6.20
2018,01,21,16,21,6.30
2018,01,21,16,22,6.30
2018,01,21,16,23,6.30
2018,01,21,16,24,6.30
2018,01,21,16,25,6.30
2018,01,21,16,26,6.30
2018,01,21,16,27,6.30
2018,01,21,16,28,6.40
2018,01,21,16,29,6.40
2018,01,21,16,30,6.40
2018,01,21,16,31,6.40
2018,01,21,16,32,6.40
2018,01,21,16,33,6.40
2018,01,21,16,34,6.40
2018,01,21,16,35,6.40
2018,01,21,16,36,6.40
2018,01,21,16,37,6.40
2018,01,21,16,38,6.40
2018,01,21,16,39,6.30
2018,01,21,16,40,6.30
2018,01,21,16,41,6.30
2018,01,21,16,42,6.20
2018,01,21,16,43,6.20
2018,01,21,16,44,6.20
2018,01,21,16,45,6.20
2018,01,21,16,46,6.10
2018,01,21,16,47,6.10
2018,01,21,16,48,6.00
2018,01,21,16,49,6.00
2018,01,21,16,50,5.90
2018,01,21,16,51,5.90
2018,01,21,16,52,5.80
2018,01,21,16,53,5.80
2018,01,21,16,54,5.80
2018,01,21,16,55,5.80
2018,01,21,16,56,5.80
2018,01,21,16,57,5.80
2018,01,21,16,58,5.80
2018,01,21,16,59,5.80
2018,01,21,17,00,5.80
2018,01,21,17,01,5.80
2018,01,21,17,02,5.80
2018,01,21,17,03,5.80
2018,01,21,17,04,5.80
2018,01,21,17,05,5.80
2018,01,21,17,06,5.80
2018,01,21,17,07,5.80
2018,01,21,17,08,5.80
2018,01,21,17,09,5.80
2018,01,21,17,10,5.80
2018,01,21,17,11,5.80
2018,01,21,17,12,5.80
2018,01,21,17,13,5.80
2018,01,21,17,14,5.80
2018,01,21,17,15,5.80
2018,01,21,17,16,5.80
2018,01,21,17,17,5.80
2018,01,21,17,18,5.80
2018,01,21,17,19,5.80
2018,01,21,17,20,5.80
2018,01,21,17,21,5.80
2018,01,21,17,22,5.80
2018,01,21,17,23,5.80
2018,01,21,17,24,5.80
2018,01,21,17,25,5.80
2018,01,21,17,26,5.80
2018,01,21,17,27,5.70
2018,01,21,17,28,5.80
2018,01,21,17,29,5.70
2018,01,21,17,30,5.70
2018,01,21,17,31,5.70
2018,01,21,17,32,5.70
2018,01,21,17,33,5.70
2018,01,21,17,34,5.70
2018,01,21,17,35,5.70
2018,01,21,17,36,5.70
2018,01,21,17,37,5.70
2018,01,21,17,38,5.70
2018,01,21,17,39,5.70
2018,01,21,17,40,5.70
2018,01,21,17,41,5.70
2018,01,21,17,42,5.70
2018,01,21,17,43,5.70
2018,01,21,17,44,5.70
2018,01,21,17,45,5.70
2018,01,21,17,46,5.70
2018,01,21,17,47,5.80
2018,01,21,17,48,5.80
2018,01,21,17,49,5.80
2018,01,21,17,50,5.80
2018,01,21,17,51,5.80
2018,01,21,17,52,5.80
2018,01,21,17,53,5.80
2018,01,21,17,54,5.80
2018,01,21,17,55,5.80
2018,01,21,17,56,5.80
2018,01,21,17,57,5.90
2018,01,21,17,58,5.90
2018,01,21,17,59,5.90
2018,01,21,18,00,5.90
2018,01,21,18,01,5.90
2018,01,21,18,02,6.00
2018,01,21,18,03,6.00
2018,01,21,18,04,6.00
2018,01,21,18,05,6.10
2018,01,21,18,06,6.20
2018,01,21,18,07,6.20
2018,01,21,18,08,6.30
2018,01,21,18,09,6.30
2018,01,21,18,10,6.30
2018,01,21,18,11,6.30
2018,01,21,18,12,6.30
2018,01,21,18,13,6.30
2018,01,21,18,14,6.30
2018,01,21,18,15,6.30
2018,01,21,18,16,6.30
2018,01,21,18,17,6.30
2018,01,21,18,18,6.30
2018,01,21,18,19,6.30
2018,01,21,18,20,6.30
2018,01,21,18,21,6.20
2018,01,21,18,22,6.30
2018,01,21,18,23,6.20
2018,01,21,18,24,6.30
2018,01,21,18,25,6.20
2018,01,21,18,26,6.30
2018,01,21,18,27,6.30
2018,01,21,18,28,6.30
2018,01,21,18,29,6.20
2018,01,21,18,30,6.20
2018,01,21,18,31,6.20
2018,01,21,18,32,6.20
2018,01,21,18,33,6.20
2018,01,21,18,34,6.20
2018,01,21,18,35,6.10
2018,01,21,18,36,6.10
2018,01,21,18,37,6.10
2018,01,21,18,38,6.10
2018,01,21,18,39,6.10
2018,01,21,18,40,6.10
2018,01,21,18,41,6.10
2018,01,21,18,42,6.10
2018,01,21,18,43,6.10
2018,01,21,18,44,6.10
2018,01,21,18,45,6.10
2018,01,21,18,46,6.10
2018,01,21,18,47,6.10
2018,01,21,18,48,6.10
2018,01,21,18,49,6.10
2018,01,21,18,50,6.00
2018,01,21,18,51,6.00
2018,01,21,18,52,6.00
2018,01,21,18,53,6.00
2018,01,21,18,54,6.00
2018,01,21,18,55,6.00
2018,01,21,18,56,5.90
2018,01,21,18,57,5.90
2018,01,21,18,58,5.90
2018,01,21,18,59,5.90
2018,01,21,19,00,5.90
2018,01,21,19,01,5.90
2018,01,21,19,02,5.90
2018,01,21,19,03,5.90
2018,01,21,19,04,5.90
2018,01,21,19,05,5.90
2018,01,21,19,06,5.90
2018,01,21,19,07,5.90
2018,01,21,19,08,5.90
2018,01,21,19,09,5.90
2018,01,21,19,10,5.90
2018,01,21,19,11,5.90
2018,01,21,19,12,5.90
2018,01,21,19,13,5.90
2018,01,21,19,14,5.90
2018,01,21,19,15,6.00
2018,01,21,19,16,6.00
2018,01,21,19,17,6.00
2018,01,21,19,18,6.00
2018,01,21,19,19,6.10
2018,01,21,19,20,6.10
2018,01,21,19,21,6.10
2018,01,21,19,22,6.10
2018,01,21,19,23,6.10
2018,01,21,19,24,6.10
2018,01,21,19,25,6.10
2018,01,21,19,26,6.10
2018,01,21,19,27,6.10
2018,01,21,19,28,6.20
2018,01,21,19,29,6.20
2018,01,21,19,30,6.20
2018,01,21,19,31,6.20
2018,01,21,19,32,6.20
2018,01,21,19,33,6.20
2018,01,21,19,34,6.20
2018,01,21,19,35,6.20
2018,01,21,19,36,6.20
2018,01,21,19,37,6.20
2018,01,21,19,38,6.20
2018,01,21,19,39,6.20
2018,01,21,19,40,6.20
2018,01,21,19,41,6.20
2018,01,21,19,42,6.20
2018,01,21,19,43,6.20
2018,01,21,19,44,6.20
2018,01,21,19,45,6.20
2018,01,21,19,46,6.20
2018,01,21,19,47,6.20
2018,01,21,19,48,6.20
2018,01,21,19,49,6.20
2018,01,21,19,50,6.20
2018,01,21,19,51,6.20
2018,01,21,19,52,6.20
2018,01,21,19,53,6.20
2018,01,21,19,54,6.20
2018,01,21,19,55,6.20
2018,01,21,19,56,6.20
2018,01,21,19,57,6.20
2018,01,21,19,58,6.20
2018,01,21,19,59,6.20
2018,01,21,20,00,6.20
2018,01,21,20,01,6.20
2018,01,21,20,02,6.30
2018,01,21,20,03,6.30
2018,01,21,20,04,6.30
2018,01,21,20,05,6.30
2018,01,21,20,06,6.40
2018,01,21,20,07,6.40
2018,01,21,20,08,6.50
2018,01,21,20,09,6.50
2018,01,21,20,10,6.60
2018,01,21,20,11,6.60
2018,01,21,20,12,6.60
2018,01,21,20,13,6.70
2018,01,21,20,14,6.70
2018,01,21,20,15,6.80
2018,01,21,20,16,6.80
2018,01,21,20,17,6.80
2018,01,21,20,18,6.90
2018,01,21,20,19,6.90
2018,01,21,20,20,7.00
2018,01,21,20,21,7.00
2018,01,21,20,22,7.00
2018,01,21,20,23,7.00
2018,01,21,20,24,7.00
2018,01,21,20,25,7.00
2018,01,21,20,26,7.10
2018,01,21,20,27,7.10